Flag for Denmark Weather past 2 weeks in Vejle, Denmark

Now
55 °F

Sprinkles. Partly sunny.


Feels Like: 50 °F
Forecast: 47 / 63 °F
Wind: 28 mph from Northwest

Location: Billund Lufthavn

Current Time: Sep 5, 2015 at 2:52:29 PM

Latest Report: Sep 5, 2015 at 2:20 PM


Visibility: 5 mi

Pressure: 29.56 "Hg

Humidity: 77%

Dew point: 48 °F

Location of VejleLocation

Historic Weather in Vejle — Graph

°F

Vejle temperature yesterday

Maximum temperature yesterday: 55 °F (at 9:20 AM)
Minimum temperature yesterday: 50 °F (at 1:50 AM)
Average temperature yesterday: 53 °F

Past Weeks' High & Low Weather Summary

 TemperatureHumidityPressure
High77 °F (Aug 21, 2:50 PM)100% (Aug 26, 7:20 AM)30.30 "Hg (Aug 26, 7:20 AM)
Low45 °F (Aug 29, 5:20 AM)27% (Aug 21, 6:50 PM)29.56 "Hg (Sep 5, 12:20 PM)
Average61 °F80%29.88 "Hg
* Reported Aug 21 1:20 PM — Sep 5 1:20 PM, Vejle, Weather by CustomWeather, © 2015

Note: Actual official high and low records may vary slightly from our data, if they occured in-between our weather recording intervals... More about our weather records

Advertising

Vejle weather history for previous 24 hours

 ConditionsComfort  
Time TempWeatherWind HumidityBarometerVisibility
1:20 PM
Sat, Sep 5
55 °FSprinkles. Partly sunny.25 mph88%29.56 "Hg3 mi
12:20 PM55 °FPassing clouds.22 mph77%29.56 "HgN/A
11:50 AM57 °FPartly sunny.28 mph72%29.59 "HgN/A
11:20 AM55 °FRain. Scattered clouds.21 mph72%29.59 "HgN/A
10:50 AM57 °FPassing clouds.22 mph72%29.59 "HgN/A
10:20 AM55 °FBroken clouds.14 mph82%29.59 "HgN/A
9:50 AM54 °FRain. Broken clouds.10 mph94%29.59 "HgN/A
9:20 AM52 °FLight rain. Partly sunny.8 mph94%29.59 "HgN/A
8:50 AM52 °FLight rain. Partly sunny.10 mph94%29.59 "Hg4 mi
8:20 AM52 °FSprinkles. Partly sunny.13 mph94%29.59 "Hg6 mi
7:50 AM52 °FSprinkles. Partly sunny.7 mph100%29.59 "HgN/A
7:20 AM52 °FPartly cloudy.6 mph94%29.59 "HgN/A
6:50 AM52 °FSprinkles. Passing clouds.7 mph100%29.62 "Hg4 mi
6:20 AM52 °FPartly cloudy.5 mph94%29.62 "Hg4 mi
5:20 AM50 °FFog.6 mph94%29.62 "Hg2 mi
5:02 AM48 °FPartly cloudy.6 mph100%29.65 "Hg1 mi
4:20 AM50 °FFog.6 mph94%29.65 "Hg0 mi
3:50 AM50 °FLow clouds.6 mph100%29.65 "Hg1 mi
3:20 AM52 °FFog.9 mph94%29.65 "Hg2 mi
2:50 AM52 °FPassing clouds.9 mph94%29.65 "Hg4 mi
2:20 AM52 °FPassing clouds.9 mph100%29.65 "Hg4 mi
1:50 AM52 °FPassing clouds.9 mph100%29.65 "Hg4 mi
1:20 AM54 °FFog.10 mph94%29.65 "Hg3 mi
12:50 AM54 °FFog.9 mph94%29.65 "Hg3 mi
12:20 AM54 °FPartly cloudy.9 mph100%29.65 "Hg4 mi
11:20 PM
Fri, Sep 4
55 °FSprinkles. Partly cloudy.6 mph94%29.65 "Hg4 mi
10:50 PM55 °FPartly cloudy.2 mph100%29.65 "HgN/A
10:20 PM55 °FPassing clouds.3 mph100%29.65 "HgN/A
9:50 PM55 °FPassing clouds.8 mph100%29.65 "HgN/A
9:20 PM55 °FSprinkles. Passing clouds.8 mph100%29.65 "Hg5 mi
8:50 PM55 °FSprinkles. Partly sunny.8 mph100%29.65 "Hg3 mi
8:20 PM55 °FSprinkles. Partly sunny.9 mph94%29.65 "Hg2 mi
7:50 PM55 °FRain. Partly sunny.9 mph94%29.65 "Hg2 mi
7:20 PM55 °FRain. Partly sunny.12 mph94%29.68 "Hg2 mi
6:50 PM54 °FRain. Broken clouds.12 mph100%29.68 "Hg2 mi
6:20 PM54 °FLight rain. Broken clouds.12 mph100%29.71 "Hg2 mi
5:50 PM54 °FRain. Broken clouds.9 mph100%29.71 "Hg2 mi
5:20 PM54 °FThunderstorms. Broken clouds.10 mph100%29.74 "Hg2 mi
4:50 PM54 °FRain. Fog.14 mph100%29.74 "Hg2 mi
4:20 PM54 °FRain. Fog.10 mph94%29.74 "Hg2 mi
3:20 PM54 °FThunderstorms. Fog.7 mph94%29.77 "Hg3 mi
2:54 PM54 °FThunderstorms. Fog.7 mph94%29.77 "Hg2 mi
2:20 PM54 °FRain showers. Fog.7 mph94%29.77 "Hg2 mi
Weather by CustomWeather, © 2015

See weather overviewHow to use our weather pages